NOAA 17 DEB

Satellite information

Favourite Embed

Satellite Type and Status

DEBRISIN ORBIT

Key statistics

Satellite NOAA 17 DEB at a glance.

Uptime

8474

Days in orbit

Revolutions

≈ 14.9

Per day

Orbit

SSO

Sun Synchronous Orbit

Inclination

98.5

Latest

Satellite identification and parameters

Extended collection of information and parameters for NOAA 17 DEB.

Object identification

Identified? True

Debris? True

Object name: NOAA 17 DEB

International designator: 2002-032AX

Object number (NORAD): 48714

Object ID (CCSDS): 48714

Country: UNITED STATES OF AMERICA (US)

Current information (Y/N): Y

RCS size: SMALL

Orbital parameters

Period: 96.366 minutes

Inclination: 98.4518 deg

SMA: 6962.652 km

Apoapsis: 592.898 km

Periapsis: 576.136 km

RAAN: 201.589 deg

Eccentricy: 0.00120374

Argument of periapsis: 68.7241 deg

Mean anomaly: 291.5262 deg

Mean motion: 14.94310136 rev/day

Mean motion (dot): 0.00178461 rev/day2

B* drag term: 0.01618323 1/REarth

Two-line elements (TLE)

Creation date: Sept. 2, 2025, 10:20 a.m.

Reference frame: TEME

Reference center: EARTH

Epoch: Sept. 2, 2025, 3:42 a.m. UTC

TLE line 0: 0 NOAA 17 DEB

TLE line 1: 1 48714U 02032AX 25245.15475962 .00178461 00000-0 16183-1 0 9995

TLE line 2: 2 48714 98.4518 201.5890 0012037 68.7241 291.5262 14.94310136234656

Live tracking on map

Real-time ground track for satellite NOAA 17 DEB.

In-orbit conjunctions

A list of the most updated potential collisions computed for object NOAA 17 DEB.

Target Orbit TCA Probability of collision Miss distance Type
COSMOS 1275 DEB LEO 2024-09-25 07:59:23 0.0001037878 408.0 (m) DEBRIS
COSMOS 1275 DEB LEO 2024-06-16 10:12:47 0.000487514 18.0 (m) DEBRIS

Associated space launch

NOAA M carried weather imagers and microwave and infrared sounders, as well as a SARSAT search-and-rescue package. It had an on-orbit mass of 1475 kg.

NOAA 17 DEB was lifted into orbit during the mission ‘Titan II SLV | NOAA 17’, on board a Titan II SLV space rocket.

The launch took place on June 24, 2002, 6:23 p.m. from Space Launch Complex 4W.

For more information about the launch, click the button.

Launch to space Titan II SLV | NOAA 17
Titan II SLV | NOAA 17

Agency: N/A

Status: Launch Successful

Launch date: June 24, 2002, 6:23 p.m. UTC

Rocket: Titan II SLV

Launch pad: Space Launch Complex 4W

Location: Vandenberg SFB, CA, USA

...

Latest news about this satellite

There are no fresh news available about this satellite. Check back as we update our databases every day.


Newsletter sign-up

Weekly statistics, charts and insights to help you stay on top of the space industry.